This is the latest recevied weather packets stored in our database for station/object EA5JUX. If no packets are shown the sender has not sent any weather packets the latest 10 day(s).
| Time | Temp. | Humidity | Pressure | Rain* | Wind** | Luminosity | Snow |
|---|---|---|---|---|---|---|---|
| 1787738501 | 28.33° C | 65% | 1011.4 hPa | 0 mm | - | - | - |
| 1787738201 | 28.33° C | 68% | 1011.1 hPa | 0 mm | - | - | - |
| 1787737902 | 28.33° C | 68% | 1011.3 hPa | 0 mm | - | - | - |
| 1787737602 | 28.33° C | 68% | 1011.4 hPa | 0 mm | - | - | - |
| 1787737301 | 27.78° C | 66% | 1011.2 hPa | 0 mm | - | - | - |
| 1787737001 | 28.89° C | 63% | 1011.5 hPa | 0 mm | - | - | - |
| 1787736702 | 29.44° C | 59% | 1011.1 hPa | 0 mm | - | - | - |
| 1787736402 | 28.89° C | 58% | 1011 hPa | 0 mm | - | - | - |
| 1787736101 | 28.89° C | 60% | 1010.9 hPa | 0 mm | - | - | - |
| 1787735802 | 29.44° C | 56% | 1010.9 hPa | 0 mm | - | - | - |
| 1787735501 | 29.44° C | 54% | 1011 hPa | 0 mm | - | - | - |
| 1787735201 | 29.44° C | 57% | 1011.1 hPa | 0 mm | - | - | - |
| 1787734901 | 29.44° C | 57% | 1011.2 hPa | 0 mm | - | - | - |
| 1787734610 | 28.33° C | 55% | 1011.3 hPa | 0 mm | - | - | - |
| 1787734302 | 28.33° C | 61% | 1011.1 hPa | 0 mm | - | - | - |
| 1787734002 | 28.33° C | 63% | 1011.4 hPa | 0 mm | - | - | - |
| 1787733701 | 28.33° C | 63% | 1011.9 hPa | 0 mm | - | - | - |
| 1787733401 | 27.78° C | 65% | 1011.9 hPa | 0 mm | - | - | - |
| 1787733110 | 27.78° C | 67% | 1011.9 hPa | 0 mm | - | - | - |
| 1787732801 | 27.78° C | 66% | 1012.2 hPa | 0 mm | - | - | - |
| 1787732501 | 27.22° C | 67% | 1012 hPa | 0 mm | - | - | - |
| 1787732209 | 27.22° C | 67% | 1011.4 hPa | 0 mm | - | - | - |
| 1787731922 | 27.22° C | 68% | 1011.5 hPa | 0 mm | - | - | - |
| 1787731601 | 27.22° C | 68% | 1011.3 hPa | 0 mm | - | - | - |
| 1787731311 | 27.22° C | 69% | 1011 hPa | 0 mm | - | - | - |
* Rain latest hour (hover to see other rain measurements)
** Current wind speed in m/s (hover to see current wind gust speed)